Showing default

HAIYANG 1C, 43609

Orbit data source: Space-Track

HAIYANG 1C, 43609 is a Chinese payload satellite in SSO that was launched on Fri, 07 Sep 2018 UTC via a CHANG ZHENG 2C launch vehicle from the Taiyaun Space Center, China (TSC). Payload-class satellites include a variety of spacecraft equipped with specific instruments for various scientific and technological missions. These include communications satellites like Starlink; space stations such as the ISS; scientific satellites like the Hubble; Earth observation satellites from companies like Planet Labs, Umbra, and HawkEye 360; GPS; miniature CubeSats for education and research; and military/defense satellites.

Loading next visibility...
Identifier
43609, 2018-068A
Orbit
SSO
Country
Flag of CNCN / PRC
Related business
Manufacturer
DFH
Mission
Operational Civil Imaging
Bus & Motor
CAST-968, Unknown motor
Mass
442 kg wet, 429 kg dry
Launch date (UTC)
2018-09-07 (7 years ago)
Launch vehicle
CHANG ZHENG 2C
Launch site
Taiyaun Space Center, China (TSC)
Object type
Payload
Rocket body
Debris
Shape & HBR
Box + 2 Pan, 3.8 m
Radar Cross Section
3.660 m², Large (>1 m²)

Expand to show TLE details & history
Last TLE update: 12 hours ago

TLE from 12 hours ago
0 HAIYANG 1C
1 43609U 18068A   25287.94213184  .00000230  00000-0  97755-4 0  9993
2 43609  98.5500 358.4389 0011708 102.8144 257.4350 14.34159683371931
Epoch: 2025-10-14T22:36Z
TLE epoch observation values (Epoch: 2025-10-14T22:36:40.190Z)
Latitude
-0.00002°
Longitude
-4.45188°
Altitude
782.632 km
Speed
7.462 km/s
True Right ascension
23h 53m 45s
True Declination
0° 00' 00"
Sunlit
Object was in full shadow at epoch
Visualization orbit readout
Latitude
Unknown
Longitude
Unknown
Altitude
Unknown
Speed
Unknown
Apparent Right ascension
Unknown
Apparent Declination
Unknown
Sunlit
N/A
Visualization observer readout
Local Sidereal Time
05:12:34
Azimuth
Unknown
Elevation
Unknown
Doppler factor
Unknown
Orbital elements
Apogee altitude
783.367 km
Perigee altitude
766.617 km
Semi-major axis
7,153.129 km
Eccentricity
0.00117
Inclination
98.55°
RAAN
358.4389°
Arg. of periapsis
102.8144°
True anomaly
257.30409°
Mean anomaly
257.435°
Eccentric anomaly
257.36954°
Mean motion
3.58756 °/min
Orbital period
100.35 mins
BSTAR
0.000097755
Loading maneuver chart data...
Computing Atmospheric mass density...
Loading historical data...
Loading historical data...
Loading historical data...
Loading historical data...
Loading historical data...
Loading historical data...
Loading historical data...
Other satellites on launch #68 in the year 2018 (2018-09-07 UTC)

Documentation

Showing up to 5 results
|